Regional Weather Roundup
Issued by NWS

Home | Current Version | Previous Version | Graphics & Text | Print | Product List | Glossary On
Versions: 1 2 3 4 5 6 7 8 9 10 11 12 13 14 15 16 17 18 19 20 21 22 23 24 25 26 27 28 29 30 31 32 33 34 35 36 37 38 39 40 41 42 43 44 45 46 47 48 49 50
000
ASUS43 KLOT 210210
RWRIL

ILLINOIS REGIONAL WEATHER ROUNDUP
NATIONAL WEATHER SERVICE CHICAGO/ROMEOVILLE IL
900 PM CDT MON OCT 20 2014

NOTE: "FAIR" INDICATES FEW OR NO CLOUDS BELOW 12,000 FEET WITH NO
SIGNIFICANT WEATHER AND/OR OBSTRUCTIONS TO VISIBILITY.

* THESE STATIONS ARE NOT UNDER NWS QUALITY CONTROL. THEY ALSO MAY NOT
  REPORT WEATHER SUCH AS PRECIPITATION OR FOG.

ILZ001-002-007-009-015-016-024-210300-
NORTHWEST ILLINOIS

CITY           SKY/WX    TMP DP  RH WIND       PRES   REMARKS
MOLINE         CLEAR     47  42  83 SW3       29.99R
STERLING*      PTCLDY    52  39  62 E7        30.00R
SAVANNA*       MOCLDY    53  41  65 CALM      30.00R
$$

ILZ003-004-008-010-011-017-018-210300-
NORTH CENTRAL ILLINOIS

CITY           SKY/WX    TMP DP  RH WIND       PRES   REMARKS
ROCKFORD       MOCLDY    51  40  65 N6        30.03R
FREEPORT*      PTCLDY    47  40  78 NE5       30.02R
ROCHELLE*      PTCLDY    49  40  72 NE5       30.01R
DE KALB*       CLOUDY    51  40  64 N7        30.01R
PERU*          CLEAR     51  42  71 NE9       30.00R
$$

ILZ005-006-012>014-019>023-210300-
NORTHEAST ILLINOIS

CITY           SKY/WX    TMP DP  RH WIND       PRES   REMARKS
CHICAGO-OHARE  MOCLDY    54  41  61 N12       29.98R
CHICAGO-MIDWAY CLOUDY    56  45  66 N7        29.98R
AURORA         CLOUDY    54  40  59 N8        29.99R
LANSING*       CLOUDY    53  47  79 N5        29.98R
JOLIET*        CLOUDY    55  41  59 N7        29.99R
WAUKEGAN       CLOUDY    51  41  68 NW5       29.99R
DUPAGE AIRPORT CLOUDY    53  42  66 N8        29.98R
KANKAKEE*      CLOUDY    53  48  83 N5        29.99R
WHEELING       CLOUDY    54  42  64 N7        30.01R
MORRIS*        CLOUDY    53  45  74 CALM      29.98R
ROMEOVILLE*    CLOUDY    55  40  58 N9        29.99R
NORTHERLY ISL    N/A     54  44  69 MISG        N/A
$$

LMZ740>746-210300-
SOUTHERN LAKE MICHIGAN

STATION/POSITION SKY/WX   TEMP    WIND        PRES    VSBY  WAVE
                          AIR SEA DIR/SP/G                  HT/PER
                          (F)     (DEG/KT/KT) (MB)    (MI)  (FT/S)
SOUTHERN BUOY              52 55  340/ 12/ 16 1015.0R         3/ 5
WAUKEGAN HARBOR            53     330/  9/ 12   N/A
HARRISON CRIB              54     340/ 18/ 21   N/A
BURNHAM HARBOR             54     360/ 12/ 12   N/A
CALUMET HARBOR                    340/  9/ 13   N/A
MICHIGAN CITY              53     350/ 22/ 26   N/A
$$

ILZ025>027-034>036-040-047-049-050-058-095>099-210300-
WEST-CENTRAL ILLINOIS

CITY           SKY/WX    TMP DP  RH WIND       PRES   REMARKS
QUINCY         CLEAR     58  42  55 W5        30.01R
GALESBURG*     CLEAR     48  42  78 W3        29.99R
MACOMB*        CLEAR     48  42  81 W6        30.02R
JACKSONVILLE*  CLEAR     55  45  69 W3        30.00R
PITTSFIELD*    CLEAR     54  45  70 W3        30.03R
$$

ILZ028>032-037-038-041>044-048-051>054-059>061-210300-
CENTRAL ILLINOIS

CITY           SKY/WX    TMP DP  RH WIND       PRES   REMARKS
PONTIAC        MOCLDY    55  45  67 NE7       29.98R
BLOOMINGTON    PTCLDY    55  45  69 NW6       29.99R
DECATUR        CLEAR     56  44  64 W3        29.98R
PEORIA         CLEAR     53  45  74 CALM      29.98R
LACON*         CLEAR     47  42  85 CALM      29.98R
LINCOLN*       CLEAR     54  45  71 CALM      29.97R
SPRINGFIELD    CLEAR     50  43  77 SW3       29.99R
TAYLORVILLE    CLEAR     50  43  76 W3        30.00R
$$

ILZ033-039-045-046-055>057-062-063-210300-
EAST-CENTRAL ILLINOIS

CITY           SKY/WX    TMP DP  RH WIND       PRES   REMARKS
CHAMPAIGN      CLEAR     49  43  80 MISG      29.97R
DANVILLE*      MOCLDY    52  46  80 N8        29.94R
RANTOUL*       CLOUDY    57  43  59 N6        29.97S
MATTOON        CLEAR     51  43  74 NW6       29.97R
PARIS*         CLEAR     52  46  80 NW3       29.97R
$$

ILZ079-100>102-210300-
SOUTHWEST ILLINOIS

CITY           SKY/WX    TMP DP  RH WIND       PRES   REMARKS
ALTON          CLEAR     54  41  62 NW5       30.01S
BELLEVILLE     CLEAR     56  45  67 NW6       30.00R
CAHOKIA*       CLEAR     56  45  66 CALM      30.01R
SPARTA*        CLEAR     60  43  53 N5        30.01R
$$

ILZ064>066-069>071-074>076-080>082-084>086-088>090-092>094-210300-
SOUTH-CENTRAL ILLINOIS

CITY           SKY/WX    TMP DP  RH WIND       PRES   REMARKS
CARBONDALE     CLEAR     57  45  64 N3        30.00R
CAIRO*         CLEAR     57  53  84 W3        30.00R
EFFINGHAM*     CLEAR     53  42  67 CALM      29.98R
MARION         CLEAR     63  45  51 N5        30.00R
MT. VERNON     CLEAR     50  43  76 N3        30.00R
CENTRALIA*     CLEAR     54  43  66 CALM      30.00R
SALEM*         CLEAR     57  46  67 NW3       30.00R
METROPOLIS*    PTCLDY    57  55  92 CALM      29.99R
$$

ILZ067-068-072-073-078-083-087-091-210300-
SOUTHEAST ILLINOIS

CITY           SKY/WX    TMP DP  RH WIND       PRES   REMARKS
LAWRENCEVILLE  CLEAR     56  45  66 NW7       29.97R
FLORA*         CLEAR     56  43  62 W5        29.99R
FAIRFIELD*     CLEAR     60  44  55 CALM      29.98R
HARRISBURG*    CLEAR     60  44  55 NW5       29.99R
ROBINSON*      CLEAR     57  47  68 NW7       29.97R
CARMI*         CLEAR     56  47  71 NW7       29.97S
$$

ABBREVIATIONS USED IN REMARKS
   TC - TEMPERATURE IN CELSIUS
  WCI - WIND CHILL INDEX
   HX - HEAT INDEX
  VSB - VISIBILITY
$$



USA.gov is the U.S. government's official web portal to all federal, state and local government web resources and services.